DW8108 Weather Reports


Display with metric or nautical units.
time (UTC)temp
F
wind
direction
speed
MPH
gust
MPH
rain 1hr
in
rain 24hr
in
rain mn
in
humidity
%
barometer
mb
20260503200051 60 0.0 24.0 0.00 0.10 0.10 64 1010.0
20260503194543 58 0.0 18.0 0.00 0.10 0.10 75 1010.4
20260503193043 55 0.0 14.0 0.00 0.10 0.10 85 1010.8
20260503191536 53 0.0 14.0 0.00 0.10 0.10 90 1011.2
20260503190033 51 0.0 8.0 0.02 0.10 0.10 91 1011.8
20260503184529 50 0.0 4.0 0.05 0.10 0.10 89 1012.5
20260503183026 50 0.0 4.0 0.05 0.10 0.10 87 1013.1
20260503181523 50 0.0 5.0 0.08 0.10 0.10 85 1013.7
20260503180026 50 0.0 4.0 0.07 0.07 0.07 84 1014.0
20260503174526 50 0.0 10.0 0.05 0.05 0.05 82 1014.0
20260503173023 51 0.0 9.0 0.05 0.05 0.05 80 1014.2
20260503171522 51 0.0 18.0 0.02 0.02 0.02 74 1014.5
20260503081509 41 0.0 5.0 0.00 0.00 0.00 75 1015.8
20260503071506 41 0.0 6.0 0.00 0.00 0.00 74 1015.9
20260503060122 41 0.0 8.0 0.00 0.00 0.00 77 1016.6
20260503054601 41 0.0 7.0 0.00 0.00 0.00 78 1016.7
20260503053056 41 0.0 5.0 0.00 0.00 0.00 79 1016.8
20260503051554 41 0.0 5.0 0.00 0.00 0.00 80 1016.9
20260503050053 41 0.0 4.0 0.00 0.00 0.00 81 1017.0
20260503044550 42 0.0 3.0 0.00 0.00 0.00 82 1017.0
20260503043050 42 0.0 4.0 0.00 0.00 0.00 80 1016.9
20260503041554 42 0.0 4.0 0.00 0.00 0.00 80 1017.0
20260503040050 42 0.0 4.0 0.00 0.00 0.00 83 1017.2
20260503034556 42 0.0 5.0 0.00 0.00 0.00 85 1017.3
20260503033056 42 0.0 4.0 0.00 0.00 0.00 85 1017.2
20260503031547 43 0.0 3.0 0.00 0.00 0.00 86 1017.2
20260503030048 43 0.0 3.0 0.00 0.00 0.00 85 1017.3
20260503024545 44 0.0 0.0 0.00 0.00 0.00 84 1017.3
20260503023046 44 0.0 0.0 0.00 0.00 0.00 83 1017.4
20260503021545 46 0.0 0.0 0.00 0.00 0.00 81 1017.3
20260503020044 47 0.0 2.0 0.00 0.00 0.00 79 1017.3
20260503014543 47 0.0 2.0 0.00 0.00 0.00 71 1017.2
20260503013051 48 0.0 1.0 0.00 0.00 0.00 64 1017.1
20260503011544 50 0.0 1.0 0.00 0.00 0.00 59 1017.1
20260503010107 51 0.0 3.0 0.00 0.00 0.00 59 1017.0
20260503004541 52 0.0 6.0 0.00 0.00 0.00 56 1017.0
20260503003040 53 0.0 3.0 0.00 0.00 0.00 53 1017.0
20260503001539 53 0.0 3.0 0.00 0.00 0.00 50 1017.0
20260503000039 53 0.0 6.0 0.00 0.00 0.00 47 1017.1
20260502234540 53 0.0 9.0 0.00 0.00 0.00 46 1017.1
20260502233036 54 0.0 9.0 0.00 0.00 0.00 44 1017.2
20260502231536 55 0.0 11.0 0.00 0.00 0.00 44 1017.1
20260502230035 55 0.0 5.0 0.00 0.00 0.00 41 1017.2
20260502224534 56 0.0 6.0 0.00 0.00 0.00 42 1017.2
20260502223034 57 0.0 7.0 0.00 0.00 0.00 38 1017.3
20260502221533 57 0.0 8.0 0.00 0.00 0.00 41 1017.3
20260502220033 57 0.0 10.0 0.00 0.00 0.00 41 1017.4
20260502214537 57 0.0 8.0 0.00 0.00 0.00 42 1017.4
20260502213032 56 0.0 10.0 0.00 0.00 0.00 43 1017.4
20260502211531 57 0.0 8.0 0.00 0.00 0.00 41 1017.3
20260502210032 58 0.0 9.0 0.00 0.00 0.00 39 1017.6
20260502204527 58 0.0 10.0 0.00 0.00 0.00 41 1017.8
20260502203025 57 0.0 11.0 0.00 0.00 0.00 42 1017.9
20260502201524 57 0.0 11.0 0.00 0.00 0.00 45 1018.2